Location: Columbia
(38.9520°N, 92.3340°W)
Time: 06:21:31
(UTC-06:00)

Iridium 22 - Visible Passes

Search period start: 29 January 2015 00:00
Search period end: 08 February 2015 00:00
Orbit: 776 x 779 km, 86.4° (Epoch: 28 January)

Date Brightness Start Highest point End Pass type
(mag) Time Alt. Az. Time Alt. Az. Time Alt. Az.
03 Feb 7.8 19:30:16 10° NNE 19:30:17 10° NNE 19:30:17 10° NNE visible
04 Feb 7.5 18:57:25 10° NNE 18:57:49 12° NNE 18:57:49 12° NNE visible
04 Feb 7.9 20:37:28 10° NNW 20:38:23 15° NNW 20:38:23 15° NNW visible
05 Feb 6.9 20:03:40 10° N 20:06:15 30° NNW 20:06:15 30° NNW visible
06 Feb 5.5 19:30:11 10° N 19:42:27 - S 19:34:50 56° ENE visible
06 Feb 8.2 21:12:43 10° NW 21:15:30 15° WNW 21:15:30 15° WNW visible
07 Feb 6.1 18:57:03 10° NNE 19:01:39 32° E 19:06:19 10° SE visible
07 Feb 7.4 20:37:56 10° NNW 20:42:19 27° W 20:46:33 10° SW visible
